User: anonymous   Login
Location: Unspecified
(0.0000°N, 0.0000°E)
Time: 01:45:46
(UTC+00:00)
Language:

Falcon 9 debris - Orbit

View from above orbital plane
View from above orbital plane
View from above satellite
View from above satellite

Ground track
Ground track

The orbit data is extracted from the following two-line orbital elements,

1 44298U 19029BR  22180.53845339  .00016575  00000-0  21192-3 0  9993
2 44298  52.9939 156.5827 0004374  14.5353 345.5783 15.59394947176565
Epoch (UTC): 29 June 2022 12:55:22
Eccentricity: 0.0004374
inclination: 52.9939°
perigee height: 386 km
apogee height: 392 km
right ascension of ascending node: 156.5827°
argument of perigee: 14.5353°
revolutions per day: 15.59394947
mean anomaly at epoch: 345.5783°
orbit number at epoch: 17656

The dashed part of the orbit path shows where the satellite is in the earth's shadow,  

DLR